Location: Goll?ig?dem
(16.6773°N, 80.7332°E)
Time: 01:47:21
(UTC+00:00)

MOS 1 Rocket - Pass Details

Date: 21 April 2021
Orbit: 614 x 830 km, 97.4° (Epoch: 08 May)

Event Time Altitude Azimuth Distance (km) Brightness Sun altitude
Rises 23:39:48 0° 167° (SSE) 3,291 6.8 -9.5°
Reaches altitude 10° 23:42:06 10° 166° (SSE) 2,383 6.0 -9.0°
Maximum altitude 23:47:26 85° 79° (E) 830 3.8 -7.8°
Drops below altitude 10° 23:52:53 10° 350° (N) 2,431 6.2 -6.5°
Sets 23:55:14 0° 350° (N) 3,362 6.9 -5.9°
